Regional Weather Roundup
Issued by NWS

Home | Current Version | Previous Version | Graphics & Text | Print | Product List | Glossary On
Versions: 1 2 3 4 5 6 7 8 9 10 11 12 13 14 15 16 17 18 19 20 21 22 23 24 25 26 27 28
000
ASUS45 KPSR 240310
RWRAZ

ARIZONA HOURLY REGIONAL WEATHER ROUNDUP
NATIONAL WEATHER SERVICE PHOENIX AZ
800 PM MST THU FEB 23 2017

NOTE: FAIR INDICATES FEW OR NO CLOUDS BELOW 12,000 FEET WITH NO
SIGNIFICANT WEATHER AND/OR OBSTRUCTIONS TO VISIBILITY.

AZZ001>003-036-240400-
NORTHWEST ARIZONA

CITY           SKY/WX    TMP DP  RH WIND       PRES   REMARKS
BULLHEAD CITY  CLEAR     57  10  15 N3        29.95R
KINGMAN        CLEAR     43 -15   8 W10       29.94R
$$

AZZ004>008-015-016-018-240400-
NORTH CENTRAL ARIZONA

CITY           SKY/WX    TMP DP  RH WIND       PRES   REMARKS
GRAND CANYON   CLEAR     26  10  50 SW5       29.85S WCI  20
WILLIAMS       CLEAR     27   5  39 W7        29.87R WCI  19
PRESCOTT       CLEAR     35  16  45 SW12      29.90R WCI  27
FLAGSTAFF      PTCLDY    29  16  58 SW9       29.84R WCI  20
PAYSON         MOCLDY    37  23  56 CALM      29.93R
PAGE           PTCLDY    40   4  22 W8G17     29.84R WCI  34
$$

AZZ009>014-017-240400-
NORTHEAST ARIZONA

CITY           SKY/WX    TMP DP  RH WIND       PRES   REMARKS
WINSLOW        CLOUDY    43  24  47 SW14      29.85R
SAINT JOHNS    PTCLDY    37  11  34 SW17G25   29.82R WCI  27
WINDOW ROCK    CLOUDY    33  10  38 W8        29.79S WCI  26
SHOW LOW       CLEAR     30  10  43 SW16G22   29.88S WCI  19
$$

AZZ023-240400-
GREATER PHOENIX AREA

CITY           SKY/WX    TMP DP  RH WIND       PRES   REMARKS
PHOENIX        PTCLDY    55  24  30 SW7       29.92R
BUCKEYE        CLEAR     50  27  40 W9        29.95R
GLENDALE       PTCLDY    57  23  26 SW10      29.94R
LUKE AFB       CLEAR     55  24  30 SW9       29.92R
DEER VALLEY    CLEAR     54  22  28 SW12      29.91R
SCOTTSDALE     CLEAR     55  21  26 W7        29.93R
MESA-FALCON    PTCLDY   N/A N/A N/A SW8       29.90R
MESA-GATEWAY   CLEAR     54  21  28 W8        29.93R
CHANDLER       CLEAR     55  21  26 W9        29.93R
$$

AZZ027-028-240400-
SOUTHWEST MARICOPA COUNTY AND PINAL COUNTY

CITY           SKY/WX    TMP DP  RH WIND       PRES   REMARKS
CASA GRANDE    NOT AVBL
GILA BEND      CLEAR     57  18  21 SW7       29.94R
$$

AZZ503-504-507>509-240400-
SOUTHEAST ARIZONA

CITY           SKY/WX    TMP DP  RH WIND       PRES   REMARKS
TUCSON         CLEAR     56  13  18 NW12      29.95R
DAVIS-MONTHAN  CLEAR     54  13  19 NW10      29.94R
RYAN FIELD     CLEAR     54  16  22 NW10      29.96R
NOGALES        CLEAR     48  17  29 CALM      29.95R
SIERRA VISTA   CLEAR     47   8  20 W16       29.94S
DOUGLAS        CLEAR     53  13  20 W14       29.92R
SAFFORD        CLEAR     50  12  21 NW17      29.86R
$$

AZZ020-021-025-026-031-240400-
SOUTHWEST ARIZONA

CITY           SKY/WX    TMP DP  RH WIND       PRES   REMARKS
YUMA           CLEAR     59  31  34 W5        29.95R
$$

CAZ031-033-041-043-047-048-061-240400-
SOUTHERN CALIFORNIA

CITY           SKY/WX    TMP DP  RH WIND       PRES   REMARKS
DOWNTOWN L.A.  CLEAR     56  21  25 CALM      30.06R
L.A. AIRPORT   PTCLDY    55  25  31 N10       30.06R
SAN DIEGO      PTCLDY    55  35  47 NW3       30.11R
BURBANK        CLEAR     50  16  25 N12       30.06R
ONTARIO        PTCLDY    50  31  48 SW8       30.03R
RIVERSIDE      CLEAR     49  33  54 W8        30.04R
PALM SPRINGS   CLEAR     60  29  30 W18G31    29.96R
EL CENTRO NAS  CLEAR     59  31  34 W18       29.98R
IMPERIAL         N/A     57  35  43 W8        29.96R
BLYTHE         CLEAR     55  25  31 N7        29.96R
NEEDLES        CLEAR     58  17  20 W12       29.95R
$$

NVZ020-UTZ003-240400-
SOUTHERN NEVADA-UTAH

CITY           SKY/WX    TMP DP  RH WIND       PRES   REMARKS
LAS VEGAS      PTCLDY    51   4  14 NW8G20    29.92R
SALT LAKE CITY CLOUDY    29  25  85 W9        29.88S WCI  20
$$

NMZ009-TXZ055-240400-
NEW MEXICO-WEST TEXAS

CITY           SKY/WX    TMP DP  RH WIND       PRES   REMARKS
ALBUQUERQUE    PTCLDY    43   7  22 N17G25    29.76R
EL PASO        CLEAR     62  -1   8 W18G30    29.79R
$$


........................KEY........................
SKY/WX - SKY CONDITION/WEATHER
TMP    - TEMPERATURE IN FAHRENHEIT
DP     - DEW POINT IN FAHRENHEIT
RH     - RELATIVE HUMIDITY IN PERCENT
WIND   - DIRECTION AND SPEED IN MILES PER HOUR (MPH)
VRB    - VARIABLE WIND DIRECTION
PRES   - MEAN SEA LEVEL PRESSURE IN INCHES OF MERCURY
         F - FALLING PRESSURE   R - RISING PRESSURE
         S - STEADY PRESSURE
VSB    - VISIBILITY IN MILES
HX     - HEAT INDEX IN FAHRENHEIT
WCI    - WIND CHILL INDEX IN FAHRENHEIT
TC     - TEMPERATURE IN CELSIUS WHICH IS ALSO KNOWN AS
         TEMPERATURE IN CENTIGRADE
AFB    - AIR FORCE BASE
         LUKE AFB IS LUKE AIR FORCE BASE
         DAVIS-MONTHAN IS DAVIS-MONTHAN AIR FORCE BASE
NAS    - NAVAL AIR STATION
         EL CENTRO NAS IS EL CENTRO NAVAL AIR STATION
N/A    - NOT AVAILABLE





USA.gov is the U.S. government's official web portal to all federal, state and local government web resources and services.